Regional Weather Roundup
Issued by NWS

Home | Current Version | Previous Version | Graphics & Text | Print | Product List | Glossary On
Versions: 1 2 3 4 5 6 7 8 9 10 11 12 13 14 15 16 17 18 19 20 21 22 23 24 25 26 27 28 29 30 31 32 33 34 35 36 37 38 39 40 41 42 43 44 45 46 47 48 49 50
000
ASUS43 KLMK 262302
RWRKY
KENTUCKY REGIONAL WEATHER ROUNDUP
NATIONAL WEATHER SERVICE LOUISVILLE KY
700 PM EDT SUN APR 26 2015

NOTE "FAIR" INDICATES FEW OR NO CLOUDS BELOW 12,000 FEET
WITH NO SIGNIFICANT WEATHER AND/OR OBSTRUCTIONS TO VISIBILITY.

KYZ001>023-026-027-061>063-070>075-270000-
WESTERN AND SOUTH CENTRAL KENTUCKY

CITY           SKY/WX    TMP DP  RH WIND       PRES   REMARKS
PADUCAH        SUNNY     64  40  41 NE12      29.86R
HENDERSON      SUNNY     61  34  36 N14       29.86S
OWENSBORO      SUNNY     63  34  33 NE9       29.86S
HOPKINSVILLE   MOSUNNY   59  46  63 N6        29.84S
BOWLING GREEN  CLOUDY    63  40  42 N6        29.84R
GLASGOW        NOT AVBL
$$

KYZ024-025-028>034-038-045-046-053-270000-
NORTH CENTRAL KENTUCKY

CITY           SKY/WX    TMP DP  RH WIND       PRES   REMARKS
LOUISVILLE/SDF MOSUNNY   62  35  36 N12       29.84S
LOUISVILLE/LOU SUNNY     62  34  35 N10G17    29.85R
FORT KNOX      SUNNY     61  34  36 N8        29.83R
$$

KYZ035>037-039>044-047>052-055>060-089>105-270000-
NORTHEAST KENTUCKY

CITY           SKY/WX    TMP DP  RH WIND       PRES   REMARKS
LEXINGTON      SUNNY     59  35  40 N13       29.82R
COVINGTON      MOSUNNY   58  35  42 N14       29.85R
FRANKFORT      SUNNY     61  31  32 N7G18     29.82R
$$

KYZ054-064>069-076>088-106>120-270000-
SOUTHEAST KENTUCKY

CITY           SKY/WX    TMP DP  RH WIND       PRES   REMARKS
JACKSON        SUNNY     62  32  32 CALM      29.77R
LONDON         CLOUDY    60  38  43 NW6       29.80R
SOMERSET       NOT AVBL
MIDDLESBORO    CLOUDY    56  46  70 CALM      29.80R
MONTICELLO     CLOUDY    59  43  55 N7        29.85R
$$



USA.gov is the U.S. government's official web portal to all federal, state and local government web resources and services.